< < Back
Terminal Aerodrome Forecast


Current Version              Previous Versions:   1  2  3  4  5  6  7  8  9  

Terminal Aerodrome Forecast

426
FTUS42 KILM 240900 AAA
TAFILM
TAF AMD
KILM 240917Z 2409/2506 20008KT 6SM -RA VCSH SCT030 BKN045 OVC060
     FM241600 21014G20KT P6SM VCSH SCT007 OVC015
     FM250000 20010KT 3SM BR SCT003 OVC012=



Latest METAR

537
SAUS70 KWBC 240900 RRP
MTRILM
METAR KILM 240853Z 20008KT 10SM BKN046 OVC060 20/19 A2983 RMK AO2
RAB25E50 SLP100 P0001 60001 T02000189 50005


USA.gov is the U.S. government's official web portal to all federal, state and local government web resources and services.